CZ-2D R/B (53945 NORAD) Tracking and Keplerian Element Data

This shows tracking and keplerian element data for the satellite.

Feedback or suggestion? Click here.




ElementValue
Catalog53945
NameCZ-2D R/B
Epoch Orbit435
Epoch Day298.23223991
Epoch Year2022
RAAN4.6084
Inclination34.9974
Eccentricity0.0007547
Argument of Perigee156.7927
Mean Anonmoly259.0537
Mean Motion15.25843181
Decay Rate0.00022476
L11 53945U 22120C 22298.23223991 .00022476 00000+0 85502-3 0 9990
L22 53945 34.9974 4.6084 0007547 156.7927 259.0537 15.25843181 4357



Live tracking and technical data element details for CZ-2D R/B (NORAD 53945). CZ-2D R/B can be tracked NOW for your location showing map with azimuth and elevation plus other details from your city location.







IsCatalogInMostPopularTable: catalog: 53945, numindb: 3
Update: records affected: 1



GetName: 53945 CZ-2D R/B

Hit Count: updated at: Thu, 08 Dec 2022 09:47:51 GMT